[[{"header":{"parameterUnit":"m.s-1","parameterCategory":1,"la1":30.2991,"la2":30.254,"lo1":-89.0895,"lo2":-89.0444,"dy":0.0017,"dx":0.0017,"nx":28,"ny":28,"refTime":"2024-07-07T03:00:00:Z","depth":0,"parameterNumber":2,"parameterNumberName":"U-component_of_WINDS"},"data":[0,0,0,0,0,0,0,0,0,0,0,0,0,0,0,0,0,0,0,0,0,0,0,0,0,0,0,0,0,0,0,0,0,0,0,0,0,0,0,0,0,0,0,0,0,0,0,0,0,0,0,0,0,0,0,0,0,0,-3.5144,-3.5145,0,-3.5204,-3.5205,-3.5205,-3.519,-3.5189,-3.5188,-3.5186,-3.5246,-3.5248,-3.5251,0,0,0,0,0,0,0,0,0,0,0,0,0,-3.5014,-3.5016,-3.5144,-3.5145,-3.5146,-3.5204,-3.5205,-3.5206,-3.519,-3.5189,-3.5187,-3.5186,-3.5245,-3.5248,-3.5251,0,0,0,0,0,0,0,0,0,0,0,0,0,-3.5072,-3.5017,-3.5144,-3.5145,-3.5146,-3.5204,-3.5205,-3.5206,-3.519,-3.5189,-3.5187,-3.5185,-3.5244,-3.5248,-3.5251,-3.5312,0,0,-3.5264,-3.5265,0,0,0,0,0,0,0,0,-3.5069,-3.5077,-3.5144,-3.5145,-3.5146,-3.5188,-3.5181,-3.5241,-3.5191,-3.5173,-3.5186,-3.5184,-3.5228,-3.5233,-3.5248,-3.5314,-3.5317,-3.5264,-3.5267,-3.5268,-3.5269,0,0,0,0,0,0,0,-3.5065,-3.5074,-3.5168,-3.5145,-3.5146,-3.5142,-3.5148,-3.5192,-3.521,-3.5175,-3.5174,-3.5181,-3.5228,-3.5244,-3.5249,-3.5318,-3.5264,-3.5268,-3.527,-3.5272,-3.5435,-3.5437,0,0,0,0,0,0,-3.506,-3.5071,-3.5166,-3.517,-3.5102,-3.5145,-3.5153,-3.5176,-3.5209,-3.5212,-3.5183,-3.518,-3.5238,-3.5244,-3.5251,-3.5322,-3.5268,-3.5272,-3.5274,-3.5433,-3.5435,-3.5437,0,0,0,0,0,0,-3.5057,-3.5069,-3.5163,-3.512,-3.5132,-3.515,-3.5176,-3.5178,-3.5194,-3.5215,-3.5218,-3.5196,-3.5237,-3.5246,-3.5296,-3.5324,-3.5274,-3.5277,-3.543,-3.5433,-3.5436,-3.5465,0,0,0,0,0,0,-3.5054,-3.5068,-3.5092,-3.5121,-3.5134,-3.5209,-3.5178,-3.5181,-3.5202,-3.5199,-3.5229,-3.5232,-3.5236,-3.5291,-3.53,-3.5328,-3.5281,-3.5428,-3.5432,-3.5435,-3.5462,-3.5469,-3.5475,0,0,0,0,0,-3.5049,-3.5097,-3.5093,-3.5104,-3.5164,-3.521,-3.5218,-3.5223,-3.5204,-3.5227,-3.524,-3.5231,-3.532,-3.5296,-3.5307,-3.5337,-3.5426,-3.5431,-3.5435,-3.5459,-3.5467,-3.5474,0,0,0,0,0,0,-3.507,-3.5101,-3.5096,-3.5156,-3.518,-3.5207,-3.5237,-3.5232,-3.5262,-3.5258,-3.5262,-3.5269,-3.532,-3.5334,-3.5307,-3.5396,-3.537,-3.5377,-3.5385,-3.5393,-3.5399,-3.5394,-3.5284,0,0,0,0,0,-3.5082,-3.5118,-3.5142,-3.5192,-3.5205,-3.5219,-3.5239,-3.5241,-3.5266,-3.5277,-3.5294,-3.5318,-3.5351,-3.5373,-3.5405,-3.5464,-3.5469,-3.549,-3.5497,-3.5502,-3.5507,-3.5537,-3.5546,-3.5451,-3.5451,-3.5451,0,0,-3.5106,-3.5127,-3.5149,-3.5197,-3.5216,-3.5252,-3.5228,-3.5267,-3.5293,-3.5282,-3.5331,-3.5345,-3.5372,-3.5427,-3.5452,-3.544,-3.5534,-3.5507,-3.5511,-3.5513,-3.5543,-3.5551,-3.5559,-3.5454,-3.5454,-3.5453,0,0,-3.5168,-3.5188,-3.5231,-3.5251,-3.5281,-3.529,-3.53,-3.5329,-3.5337,-3.5386,-3.5379,-3.541,-3.5468,-3.5487,-3.5504,-3.5573,-3.5565,-3.5584,-3.5616,-3.5646,-3.5653,-3.566,-3.5682,-3.5691,-3.5589,-3.5589,-3.559,0,-3.5193,-3.5248,-3.5253,-3.5293,-3.5313,-3.5306,-3.5349,-3.5368,-3.5407,-3.542,-3.5407,-3.5478,-3.5497,-3.5555,-3.5572,-3.5587,-3.5597,-3.5579,-3.5652,-3.5659,-3.5665,-3.5686,-3.5695,-3.5591,-3.5591,-3.5591,-3.5591,0,-3.5277,-3.5315,-3.5345,-3.5383,-3.5407,-3.5448,-3.5459,-3.5483,-3.5483,-3.5493,-3.5542,-3.5564,-3.5599,-3.5614,-3.5614,-3.5672,-3.5663,-3.5651,-3.5625,-3.5676,-3.5696,-3.5704,-3.5594,-3.5593,-3.5593,-3.5592,0,0,-3.5352,-3.5393,-3.5404,-3.542,-3.5453,-3.5481,-3.5522,-3.5557,-3.5576,-3.5603,-3.5636,-3.5685,-3.5674,-3.5693,-3.5696,-3.5722,-3.5773,-3.5706,-3.5707,-3.5716,-3.5836,-3.5843,-3.5853,-3.5768,-3.577,-3.5771,-3.5833,0,-3.5415,-3.5486,-3.5492,-3.5556,-3.559,-3.5584,-3.5618,-3.5641,-3.5652,-3.5682,-3.5694,-3.5727,-3.5711,-3.5723,-3.5749,-3.5761,-3.5797,-3.5757,-3.5797,-3.5798,-3.5788,-3.5864,-3.5872,-3.5929,-3.5841,-3.5842,-3.5843,0,-3.5498,-3.5527,-3.5594,-3.5621,-3.5635,-3.5666,-3.5698,-3.5728,-3.5753,-3.5759,-3.5781,-3.578,-3.582,-3.5794,-3.5849,-3.5822,-3.5839,-3.5847,-3.585,-3.5852,-3.5822,-3.5865,-3.5947,-3.5955,-3.5856,-3.5855,-3.5854,0,-3.5543,-3.56,-3.5647,-3.5661,-3.5694,-3.5716,-3.573,-3.5755,-3.5775,-3.5803,-3.5816,-3.5849,-3.5866,-3.5891,-3.5898,-3.5879,-3.5951,-3.5926,-3.5955,-3.5955,-3.5969,-3.5968,-3.6052,-3.5984,-3.5984,-3.5984,-3.5983,0,-3.5611,-3.5652,-3.5667,-3.5696,-3.5741,-3.5747,-3.5791,-3.5805,-3.5826,-3.5856,-3.5854,-3.5882,-3.5891,-3.592,-3.5926,-3.5969,-3.5977,-3.5982,-3.5982,-3.5981,-3.598,-3.599,-3.5986,-3.5986,-3.5985,-3.5985,-3.5985,0,-3.5669,-3.5681,-3.5731,-3.5759,-3.5766,-3.5798,-3.5821,-3.5848,-3.5858,-3.5896,-3.5906,-3.5922,-3.5956,-3.5966,-3.6008,-3.6012,-3.6061,-3.6059,-3.6052,-3.6052,-3.6079,-3.6076,-3.6171,-3.6183,-3.6109,-3.611,-3.6111,0,-3.5711,-3.5742,-3.5772,-3.5792,-3.5808,-3.5841,-3.5861,-3.5869,-3.5891,-3.5922,-3.5945,-3.5979,-3.6007,-3.6062,-3.6077,-3.6108,-3.6106,-3.6137,-3.611,-3.6107,-3.6103,-3.6101,-3.6103,-3.6141,-3.6142,-3.6143,-3.6143,0,-3.5783,-3.5787,-3.5817,-3.585,-3.5875,-3.5901,-3.5925,-3.5942,-3.5953,-3.5977,-3.6013,-3.6034,-3.6077,-3.611,-3.6142,-3.6156,-3.6151,-3.6152,-3.616,-3.6157,-3.6151,-3.6153,-3.6064,-3.6149,-3.6149,-3.6148,-3.6148,-3.6148,-3.5832,-3.5859,-3.5884,-3.5918,-3.5937,-3.596,-3.5986,-3.6,-3.603,-3.6065,-3.6068,-3.6106,-3.613,-3.6172,-3.6188,-3.6217,-3.6207,-3.6219,-3.6222,-3.6224,-3.6225,-3.6148,-3.6223,-3.6222,-3.6222,-3.6222,-3.6222,0,-3.5902,-3.5918,-3.5949,-3.5984,-3.601,-3.6004,-3.6031,-3.6053,-3.6086,-3.611,-3.6137,-3.6177,-3.6209,-3.6226,-3.6258,-3.6278,-3.6276,-3.6286,-3.6283,-3.6286,-3.6233,-3.6222,-3.6286,-3.6286,-3.6286,-3.6286,-3.6286,-3.6286,-3.5942,-3.5986,-3.5993,-3.6046,-3.6062,-3.6099,-3.6114,-3.6135,-3.6153,-3.6198,-3.6225,-3.6236,-3.6257,-3.629,-3.6319,-3.6323,-3.6334,-3.6344,-3.6347,-3.6297,-3.629,-3.6284,-3.6273,-3.6347,-3.6347,-3.6397,-3.6398,-3.6398]},{"header":{"parameterUnit":"m.s-1","parameterCategory":1,"la1":30.2991,"la2":30.254,"lo1":-89.0895,"lo2":-89.0444,"dy":0.0017,"dx":0.0017,"nx":28,"ny":28,"refTime":"2024-07-07T03:00:00:Z","depth":0,"parameterNumber":3,"parameterNumberName":"V-component_of_WINDS"},"data":[0,0,0,0,0,0,0,0,0,0,0,0,0,0,0,0,0,0,0,0,0,0,0,0,0,0,0,0,0,0,0,0,0,0,0,0,0,0,0,0,0,0,0,0,0,0,0,0,0,0,0,0,0,0,0,0,0,0,5.8424,5.8425,0,5.8519,5.852,5.8521,5.8459,5.8456,5.8454,5.8451,5.8543,5.8548,5.8553,0,0,0,0,0,0,0,0,0,0,0,0,0,5.8182,5.8187,5.8424,5.8425,5.8426,5.8519,5.852,5.8521,5.846,5.8456,5.8453,5.845,5.8541,5.8547,5.8554,0,0,0,0,0,0,0,0,0,0,0,0,0,5.8283,5.8189,5.8423,5.8407,5.8406,5.8519,5.852,5.8522,5.8461,5.8456,5.8452,5.8448,5.8539,5.8547,5.8554,5.8687,0,0,5.8578,5.8581,0,0,0,0,0,0,0,0,5.8278,5.8292,5.8408,5.8408,5.8408,5.8473,5.8469,5.8577,5.8462,5.844,5.8451,5.8446,5.8523,5.8532,5.8559,5.8691,5.8695,5.8578,5.8583,5.8586,5.8589,0,0,0,0,0,0,0,5.8271,5.8288,5.8461,5.841,5.8409,5.8392,5.8402,5.8489,5.8504,5.8441,5.8437,5.8449,5.8522,5.8551,5.856,5.8697,5.8578,5.8585,5.859,5.8593,5.8941,5.8945,0,0,0,0,0,0,5.8266,5.8282,5.8458,5.8464,5.8331,5.84,5.8411,5.8456,5.8503,5.8506,5.8453,5.8446,5.854,5.8551,5.8563,5.8721,5.8586,5.8593,5.8598,5.8936,5.8942,5.8947,0,0,0,0,0,0,5.8261,5.8282,5.8454,5.8372,5.8393,5.8409,5.846,5.846,5.849,5.8512,5.8513,5.8481,5.8537,5.8553,5.8657,5.8723,5.8597,5.8604,5.8931,5.8938,5.8944,5.9037,0,0,0,0,0,0,5.8254,5.8281,5.8333,5.8374,5.8397,5.8548,5.8464,5.8465,5.8504,5.8496,5.8538,5.8541,5.8535,5.8646,5.8664,5.8731,5.861,5.8925,5.8934,5.8942,5.9028,5.9046,5.9062,0,0,0,0,0,5.8246,5.8354,5.8336,5.8357,5.8463,5.8552,5.8565,5.8558,5.851,5.8561,5.8575,5.854,5.8713,5.8657,5.8677,5.8748,5.8921,5.8931,5.8942,5.902,5.9043,5.9061,0,0,0,0,0,0,5.8319,5.8359,5.8339,5.8465,5.8506,5.8542,5.8606,5.8582,5.8636,5.8626,5.8613,5.8623,5.8732,5.875,5.8687,5.8877,5.8809,5.8824,5.8862,5.8883,5.89,5.8892,5.8616,0,0,0,0,0,5.835,5.8421,5.8452,5.8559,5.8581,5.859,5.8629,5.862,5.8661,5.8677,5.8699,5.8738,5.8801,5.8843,5.8903,5.903,5.9038,5.9089,5.9105,5.9119,5.9132,5.9199,5.9222,5.8981,5.8981,5.8981,0,0,5.8414,5.8445,5.849,5.8575,5.8605,5.8677,5.8605,5.8684,5.8737,5.8689,5.8789,5.8806,5.8849,5.8965,5.9017,5.8984,5.92,5.9133,5.9143,5.9149,5.9213,5.9235,5.9256,5.8988,5.8987,5.8986,0,0,5.8568,5.8599,5.8692,5.8724,5.8772,5.8778,5.88,5.884,5.885,5.895,5.8915,5.8976,5.9086,5.9117,5.9148,5.9313,5.9282,5.9333,5.942,5.9486,5.9505,5.9522,5.9579,5.96,5.9345,5.9346,5.9346,0,5.8641,5.875,5.8742,5.8824,5.8861,5.8822,5.8915,5.8946,5.901,5.9035,5.8997,5.9133,5.916,5.9282,5.9322,5.9349,5.9372,5.9327,5.9504,5.952,5.9536,5.959,5.9612,5.9351,5.9351,5.935,5.935,0,5.8837,5.8913,5.8981,5.9046,5.9091,5.9177,5.918,5.9226,5.9213,5.9222,5.9323,5.9354,5.9418,5.9447,5.9434,5.9567,5.9545,5.9505,5.9436,5.9564,5.9615,5.9636,5.936,5.9358,5.9356,5.9354,0,0,5.904,5.9099,5.9124,5.9152,5.9202,5.9259,5.9343,5.9407,5.9446,5.9492,5.956,5.9654,5.9617,5.9652,5.9642,5.97,5.9827,5.9654,5.9654,5.9684,5.9974,6.0003,6.0028,5.9808,5.9812,5.9815,5.997,0,5.9195,5.9344,5.9339,5.9476,5.9545,5.9509,5.9582,5.9619,5.9629,5.9687,5.9697,5.9763,5.9711,5.9732,5.9788,5.98,5.9885,5.9789,5.9869,5.9873,5.9859,6.0055,6.0086,6.0231,5.999,5.9994,5.9996,0,5.9397,5.9451,5.9596,5.9634,5.9663,5.9729,5.9787,5.9844,5.9884,5.9887,5.9926,5.9907,5.9989,5.9919,6.0031,5.9966,5.9998,6.0009,6.0014,6.0021,5.9942,6.0065,6.0277,6.0299,6.0028,6.0025,6.0023,0,5.9529,5.9637,5.9738,5.9763,5.9811,5.9858,5.9879,5.9916,5.9955,6.0005,6.0029,6.0088,6.0119,6.0164,6.016,6.0109,6.0274,6.0203,6.0278,6.0278,6.0313,6.0311,6.0533,6.0336,6.0336,6.0335,6.0335,0,5.9704,5.9793,5.9798,5.986,5.9958,5.995,6.0048,6.0064,6.0097,6.0159,6.0131,6.019,6.0182,6.024,6.0238,6.0331,6.0345,6.0349,6.0347,6.0351,6.0351,6.0372,6.0361,6.0341,6.034,6.0339,6.0338,0,5.9868,5.9875,5.9981,6.0018,6.0029,6.01,6.013,6.0188,6.0195,6.0275,6.0293,6.0305,6.0372,6.0373,6.045,6.0448,6.0561,6.0548,6.0548,6.0545,6.0619,6.0612,6.0861,6.0893,6.0677,6.0679,6.068,0,5.9978,6.0047,6.0091,6.0131,6.0156,6.0222,6.0262,6.0256,6.0298,6.0349,6.0399,6.0465,6.0516,6.0625,6.0639,6.0698,6.0685,6.0768,6.0694,6.0695,6.0685,6.0681,6.0687,6.0783,6.0785,6.0787,6.0789,0,6.0173,6.0173,6.0232,6.0293,6.0341,6.0388,6.0431,6.0465,6.0464,6.0512,6.0582,6.0622,6.0701,6.0765,6.0821,6.0841,6.0814,6.0812,6.0832,6.0837,6.0834,6.0836,6.0587,6.0807,6.0805,6.0803,6.0803,6.0802,6.0313,6.0372,6.0412,6.0478,6.051,6.0551,6.0607,6.0622,6.068,6.0745,6.0737,6.0814,6.0851,6.0924,6.0949,6.1007,6.0978,6.1007,6.1015,6.1022,6.103,6.0826,6.1017,6.1017,6.1016,6.1016,6.1016,0,6.0506,6.053,6.0591,6.0653,6.0705,6.0677,6.0723,6.0767,6.0836,6.0873,6.0925,6.1004,6.1066,6.1085,6.1145,6.1188,6.1177,6.1204,6.12,6.1205,6.1053,6.1029,6.1211,6.1211,6.1211,6.1211,6.1211,6.1211,6.0612,6.071,6.0714,6.0826,6.0849,6.0926,6.0954,6.0991,6.1021,6.1111,6.1163,6.1175,6.1205,6.1266,6.1321,6.1324,6.1347,6.1379,6.1377,6.1235,6.1215,6.1197,6.1174,6.1384,6.1384,6.1524,6.1525,6.1526]}]]